QFA43 YSSY-WADD

Flight info

Callsign QFA43
Flight time N/A
Altitude 40000
Route RIC6 RIC H530 IVRAD Q57 DODRO G326 NYOMA NYOMA1C
Aircraft A333/H-SDE3GHIJ2J3J5M1RVWXY/LB2D1

Departure

Time 2026-04-30 07:55
Airport Sydney Kingsford Smith International Airport (YSSY)

Arrival

Time N/A
Airport Denpasar I Gusti Ngurah Rai International Airport (WADD)
Time Latitude Longitude Altitude Speed Heading
2026-04-30 07:30 -33.93826 151.16847 34 ft 0 kts 74°
2026-04-30 07:41 -33.93827 151.16841 34 ft 3 kts 73°
2026-04-30 07:42 -33.93835 151.16810 32 ft 4 kts 72°
2026-04-30 07:42 -33.93843 151.16779 34 ft 4 kts 79°
2026-04-30 07:42 -33.93844 151.16751 34 ft 4 kts 126°
2026-04-30 07:42 -33.93839 151.16744 34 ft 3 kts 163°
2026-04-30 07:43 -33.93865 151.16753 33 ft 4 kts 164°
2026-04-30 07:43 -33.93890 151.16761 34 ft 2 kts 164°
2026-04-30 07:43 -33.93911 151.16769 34 ft 4 kts 164°
2026-04-30 07:43 -33.93938 151.16777 34 ft 4 kts 164°
2026-04-30 07:44 -33.93952 151.16782 34 ft 0 kts 164°
2026-04-30 07:46 -33.93953 151.16782 34 ft 1 kts 164°
2026-04-30 07:46 -33.93961 151.16785 34 ft 2 kts 164°
2026-04-30 07:47 -33.93977 151.16791 34 ft 3 kts 164°
2026-04-30 07:47 -33.94010 151.16802 34 ft 6 kts 165°
2026-04-30 07:47 -33.94046 151.16828 34 ft 8 kts 124°
2026-04-30 07:47 -33.94046 151.16907 34 ft 11 kts 77°
2026-04-30 07:48 -33.94024 151.16999 33 ft 12 kts 74°
2026-04-30 07:48 -33.94001 151.17095 33 ft 12 kts 74°
2026-04-30 07:48 -33.93983 151.17185 33 ft 10 kts 88°
2026-04-30 07:48 -33.94025 151.17235 33 ft 10 kts 160°
2026-04-30 07:49 -33.94111 151.17260 32 ft 16 kts 168°
2026-04-30 07:49 -33.94226 151.17291 33 ft 18 kts 168°
2026-04-30 07:49 -33.94350 151.17323 34 ft 19 kts 167°
2026-04-30 07:49 -33.94470 151.17354 33 ft 17 kts 168°
2026-04-30 07:50 -33.94591 151.17385 34 ft 19 kts 168°
2026-04-30 07:50 -33.94723 151.17420 34 ft 20 kts 167°
2026-04-30 07:50 -33.94867 151.17457 33 ft 22 kts 168°
2026-04-30 07:50 -33.95023 151.17498 33 ft 22 kts 168°
2026-04-30 07:51 -33.95157 151.17532 33 ft 20 kts 168°
2026-04-30 07:51 -33.95299 151.17569 33 ft 22 kts 168°
2026-04-30 07:51 -33.95449 151.17608 33 ft 20 kts 168°
2026-04-30 07:51 -33.95573 151.17640 33 ft 14 kts 168°
2026-04-30 07:52 -33.95676 151.17667 34 ft 16 kts 168°
2026-04-30 07:52 -33.95795 151.17698 33 ft 19 kts 168°
2026-04-30 07:52 -33.95930 151.17732 34 ft 21 kts 168°
2026-04-30 07:52 -33.96076 151.17771 34 ft 22 kts 168°
2026-04-30 07:53 -33.96227 151.17810 34 ft 23 kts 168°
2026-04-30 07:53 -33.96335 151.17838 34 ft 13 kts 168°
2026-04-30 07:53 -33.96407 151.17863 34 ft 11 kts 150°
2026-04-30 07:53 -33.96433 151.17922 34 ft 4 kts 92°
2026-04-30 07:54 -33.96425 151.17988 33 ft 14 kts 76°
2026-04-30 07:54 -33.96326 151.18038 33 ft 25 kts 348°
2026-04-30 07:54 -33.95971 151.17947 32 ft 81 kts 347°
2026-04-30 07:54 -33.95248 151.17759 33 ft 130 kts 348°
2026-04-30 07:55 -33.94233 151.17490 131 ft 163 kts 348°
2026-04-30 07:55 -33.93128 151.17193 736 ft 162 kts 350°
2026-04-30 07:55 -33.92041 151.16866 1382 ft 161 kts 348°
2026-04-30 07:55 -33.90969 151.16477 1969 ft 162 kts 340°
2026-04-30 07:56 -33.90039 151.15634 2370 ft 177 kts 312°
2026-04-30 07:56 -33.89238 151.14401 2660 ft 196 kts 309°
2026-04-30 07:56 -33.88316 151.13086 2919 ft 215 kts 316°
2026-04-30 07:56 -33.87237 151.11719 3186 ft 235 kts 317°
2026-04-30 07:57 -33.86051 151.10248 3534 ft 250 kts 317°
2026-04-30 07:57 -33.84826 151.08729 3966 ft 261 kts 316°
2026-04-30 07:57 -33.83533 151.07126 4570 ft 270 kts 316°
2026-04-30 07:57 -33.82220 151.05494 5361 ft 273 kts 316°
2026-04-30 07:58 -33.80897 151.03851 6151 ft 275 kts 315°
2026-04-30 07:58 -33.79557 151.02189 6986 ft 277 kts 315°
2026-04-30 07:58 -33.78172 151.00472 7785 ft 280 kts 315°
2026-04-30 07:58 -33.76806 150.98781 8554 ft 285 kts 316°
2026-04-30 07:59 -33.75420 150.97065 9365 ft 287 kts 316°
2026-04-30 07:59 -33.74020 150.95330 10172 ft 291 kts 315°
2026-04-30 07:59 -33.72573 150.93542 10576 ft 308 kts 316°
2026-04-30 08:00 -33.69400 150.89627 11224 ft 342 kts 315°
2026-04-30 08:00 -33.67729 150.87562 11824 ft 348 kts 316°
2026-04-30 08:00 -33.66033 150.85467 12507 ft 351 kts 316°
2026-04-30 08:00 -33.64322 150.83358 13200 ft 354 kts 315°
2026-04-30 08:01 -33.62600 150.81235 13900 ft 356 kts 315°
2026-04-30 08:01 -33.60868 150.79103 14560 ft 358 kts 315°
2026-04-30 08:01 -33.59104 150.76958 15064 ft 364 kts 316°
2026-04-30 08:01 -33.57287 150.74813 15584 ft 369 kts 316°
2026-04-30 08:02 -33.53555 150.70496 16649 ft 377 kts 317°
2026-04-30 08:02 -33.51648 150.68300 17137 ft 383 kts 317°
2026-04-30 08:03 -33.47771 150.63835 18191 ft 390 kts 317°
2026-04-30 08:03 -33.43811 150.59263 19126 ft 399 kts 317°
2026-04-30 08:03 -33.41816 150.56956 19621 ft 401 kts 316°
2026-04-30 08:04 -33.39795 150.54622 20056 ft 405 kts 316°
2026-04-30 08:04 -33.37791 150.52311 20552 ft 406 kts 316°
2026-04-30 08:04 -33.35727 150.49931 21001 ft 409 kts 316°
2026-04-30 08:04 -33.33666 150.47556 21439 ft 412 kts 316°
2026-04-30 08:05 -33.31622 150.45203 21915 ft 414 kts 316°
2026-04-30 08:05 -33.29534 150.42801 22286 ft 419 kts 316°
2026-04-30 08:05 -33.27435 150.40387 22772 ft 420 kts 316°
2026-04-30 08:05 -33.25321 150.37959 23187 ft 423 kts 316°
2026-04-30 08:06 -33.23185 150.35507 23586 ft 426 kts 316°
2026-04-30 08:06 -33.21049 150.33057 24040 ft 428 kts 316°
2026-04-30 08:06 -33.18889 150.30583 24328 ft 432 kts 316°
2026-04-30 08:06 -33.16714 150.28092 24715 ft 433 kts 316°
2026-04-30 08:07 -33.14532 150.25594 25036 ft 436 kts 316°
2026-04-30 08:07 -33.12338 150.23084 25369 ft 438 kts 315°
2026-04-30 08:07 -33.10134 150.20566 25732 ft 439 kts 316°
2026-04-30 08:07 -33.07917 150.18034 26035 ft 442 kts 315°
2026-04-30 08:08 -33.05693 150.15496 26428 ft 442 kts 315°
2026-04-30 08:08 -33.03465 150.12957 26720 ft 445 kts 315°
2026-04-30 08:08 -33.01220 150.10400 27064 ft 446 kts 315°
2026-04-30 08:08 -32.98971 150.07840 27408 ft 448 kts 315°
2026-04-30 08:09 -32.96714 150.05272 27685 ft 451 kts 315°
2026-04-30 08:09 -32.94445 150.02691 28032 ft 452 kts 315°
2026-04-30 08:09 -32.92167 150.00103 28315 ft 454 kts 315°
2026-04-30 08:09 -32.89876 149.97502 28661 ft 455 kts 315°
2026-04-30 08:10 -32.87578 149.94894 28940 ft 457 kts 315°
2026-04-30 08:10 -32.85269 149.92278 29225 ft 459 kts 315°
2026-04-30 08:10 -32.82952 149.89654 29534 ft 461 kts 315°
2026-04-30 08:10 -32.80628 149.87024 29809 ft 463 kts 315°
2026-04-30 08:11 -32.78290 149.84380 30129 ft 464 kts 315°
2026-04-30 08:11 -32.75950 149.81735 30378 ft 466 kts 315°
2026-04-30 08:11 -32.73596 149.79079 30636 ft 467 kts 315°